Weather in Leso-Kyafar

Russia / Karachay-Cherkess Republic     43°47′13″N   41°27′07″E
temp.,
°C
wind,
m/s
gust,
m/s
humid.,
%
clouds,
%
prec.,
mm/h
press.,
hPa
HPBL,
m
22 april, thu
thu2200:00+5sw019439 0.0 102171
03:00+4s2190100 0.0 102115
06:00+4sw218363 0.0 102120
09:00+7ne118191 0.4 1020422
12:00+9ene3277100 0.6 1020791
15:00+8nne2288100 1.4 1020479
18:00+7nw1195100 0.6 1020145
21:00+6nnw2499100 4.4 1022301
23 april, fri
fri2300:00+5nne1198100 0.8 1023153
03:00+4nne1297100 1.4 1024188
06:00+4ene119698 0.3 1025232
09:00+6nne218027 0.4 1024569
12:00+11nne335450 0.1 10211507
15:00+12nne425638 0.3 10201286
18:00+9nne2370100 0.1 1020566
21:00+6ssw227793 0.1 102132
24 april, sat
sat2400:00+4ssw2249100 0.0 102135
03:00+5ssw1142100 0.0 102019
06:00+5sw015390 0.0 102124
09:00+11nne134399 0.0 1017703
12:00+14nne244386 0.0 10171447
15:00+12nne325891 0.2 10171048
18:00+9ne248386 0.5 1019384
21:00+7ne0186100 0.5 1021137
25 april, sun
sun2500:00+5n0190100 0.0 102115
03:00+5nne129694 0.0 1021233
06:00+5ne129599 0.0 1020220
09:00+7nne328891 0.1 1018451
12:00+9nne327999 0.1 1015664
15:00+9nne438299 0.1 1015641
18:00+7nne2396100 0.1 1015340
21:00+6ne129998 0.4 1015157
26 april, mon
mon2600:00+6w1194100 3.4 101485
03:00+5n1298100 3.4 101589
06:00+6nne229998 0.0 1015177
09:00+6nne2197100 0.1 1014270
12:00+7n2196100 1.6 1014266
15:00+6n3398100 3.2 1014392
18:00+5ne1299100 1.9 1016217
21:00+5nne1199100 2.3 1016120